Location: Newark
(48.1500°N, 2.9667°W)
Time: 02:25:20
(UTC+00:00)

Transit 2A - Pass Details

Date: 31 January 2020
Orbit: 600 x 959 km, 66.7° (Epoch: 19 February)

Event Time Altitude Azimuth Distance (km) Brightness Sun altitude
Rises 03:06:12 0° 325° (NW) 2,976 - -45.2°
Reaches altitude 10° 03:08:25 10° 327° (NNW) 2,103 - -44.9°
Maximum altitude 03:13:11 81° 55° (NE) 729 - -44.2°
Drops below altitude 10° 03:18:27 10° 143° (SE) 2,313 - -43.4°
Sets 03:20:59 0° 144° (SE) 3,298 - -43.0°
